This is the latest recevied weather packets stored in our database for station/object WX8ASH-13. If no packets are shown the sender has not sent any weather packets the latest 10 day(s).
| Time | Temp. | Humidity | Pressure | Rain* | Wind** | Luminosity | Snow |
|---|---|---|---|---|---|---|---|
| 1777535445 | 5.56° C | 99% | 1012.1 hPa | 0.51 mm | - | - | - |
| 1777534850 | 5.56° C | 99% | 1011.9 hPa | 0.51 mm | - | - | - |
| 1777534545 | 6.11° C | 99% | 1011.9 hPa | 0.51 mm | - | - | - |
| 1777534245 | 6.11° C | 99% | 1012 hPa | 0.51 mm | - | - | - |
| 1777533950 | 6.11° C | 99% | 1011.8 hPa | 0.51 mm | - | - | - |
| 1777533646 | 6.11° C | 99% | 1011.8 hPa | 0.25 mm | - | - | - |
| 1777533345 | 6.11° C | 99% | 1011.8 hPa | 0.25 mm | - | - | - |
| 1777533049 | 6.67° C | 99% | 1011.8 hPa | 0.25 mm | - | - | - |
| 1777532744 | 6.67° C | 99% | 1012 hPa | 0.25 mm | - | - | - |
| 1777532444 | 7.22° C | 99% | 1011.9 hPa | 0.25 mm | - | - | - |
| 1777532144 | 7.22° C | 99% | 1011.8 hPa | 0.25 mm | - | - | - |
| 1777531849 | 7.78° C | 99% | 1011.7 hPa | 0 mm | - | - | - |
| 1777531544 | 7.78° C | 99% | 1011.5 hPa | 0 mm | - | - | - |
| 1777531244 | 7.78° C | 99% | 1011.7 hPa | 0 mm | - | - | - |
| 1777530948 | 8.33° C | 99% | 1011.5 hPa | 0 mm | - | - | - |
| 1777530648 | 8.33° C | 99% | 1011.5 hPa | 0 mm | - | - | - |
| 1777530343 | 8.33° C | 99% | 1011.5 hPa | 0 mm | - | - | - |
| 1777530042 | 8.33° C | 99% | 1011.7 hPa | 0 mm | - | - | - |
| 1777529743 | 8.33° C | 99% | 1011.5 hPa | 0 mm | - | - | - |
| 1777529442 | 8.33° C | 99% | 1011.7 hPa | 0 mm | - | - | - |
| 1777529142 | 8.33° C | 99% | 1011.8 hPa | 0 mm | - | - | - |
| 1777528843 | 8.33° C | 99% | 1011.7 hPa | 0 mm | - | - | - |
| 1777528542 | 7.78° C | 99% | 1011.7 hPa | 0 mm | - | - | - |
| 1777528242 | 7.78° C | 99% | 1011.7 hPa | 0 mm | - | - | - |
| 1777527946 | 7.78° C | 98% | 1011.7 hPa | 0 mm | - | - | - |
* Rain latest hour (hover to see other rain measurements)
** Current wind speed in m/s (hover to see current wind gust speed)